When you browse on this site, cookies collect data to enhance your experience and personalize the content and advertising you see.
Visit our Privacy Policy to learn more. By continuing to use the site, you agree to this use of cookies and data.
  • In Hungary
  • List of Countries
  • For 7 days
  • Water Temperature
  • Satellite Maps
  • Weather Map
  • News
  • Weather Widgets
  • user-avatar
    Login

    Hourly Weather Fanislawice

    Today, 27 May, Monday

    Time Temperature Precipitation Wind Pressure Humidity
    00:00 +14°C° 0 mm 2 mps 738 mmHg 89%
    01:00 +14°C° 0 mm 2 mps 738 mmHg 91%
    02:00 +14°C° 0 mm 2 mps 738 mmHg 92%
    03:00 +14°C° 0 mm 2 mps 737 mmHg 93%
    04:00 +13°C° 0 mm 2 mps 737 mmHg 94%
    05:00 +14°C° 0 mm 3 mps 737 mmHg 88%
    06:00 +17°C° 0 mm 3 mps 737 mmHg 83%
    07:00 +19°C° 0 mm 4 mps 737 mmHg 77%
    08:00 +20°C° 0.2 mm 4 mps 737 mmHg 71%
    09:00 +22°C° 0.2 mm 4 mps 737 mmHg 64%
    10:00 +23°C° 0.2 mm 4 mps 737 mmHg 58%
    11:00 +25°C° 0.4 mm 4 mps 737 mmHg 58%
    12:00 +25°C° 0.4 mm 4 mps 737 mmHg 58%
    13:00 +25°C° 0.4 mm 4 mps 736 mmHg 58%
    14:00 +25°C° 0.4 mm 4 mps 736 mmHg 60%
    15:00 +25°C° 0.4 mm 3 mps 736 mmHg 61%
    16:00 +25°C° 0.4 mm 3 mps 736 mmHg 63%
    17:00 +22°C° 0.4 mm 3 mps 735 mmHg 69%
    18:00 +21°C° 0.4 mm 2 mps 735 mmHg 75%
    19:00 +21°C° 0.4 mm 1 mps 735 mmHg 82%
    20:00 +20°C° 0 mm 1 mps 735 mmHg 84%
    21:00 +18°C° 0 mm 2 mps 735 mmHg 86%
    22:00 +17°C° 0 mm 2 mps 734 mmHg 88%
    23:00 +17°C° 0.1 mm 2 mps 734 mmHg 89%

    Tomorrow, 28 May, Tuesday

    Time Temperature Precipitation Wind Pressure Humidity
    00:00 +17°C° 0.1 mm 2 mps 734 mmHg 91%
    01:00 +17°C° 0.1 mm 2 mps 733 mmHg 92%
    02:00 +16°C° 0.7 mm 2 mps 733 mmHg 94%
    03:00 +16°C° 0.7 mm 2 mps 733 mmHg 95%
    04:00 +16°C° 0.7 mm 1 mps 733 mmHg 96%
    05:00 +17°C° 0 mm 2 mps 732 mmHg 91%
    06:00 +18°C° 0 mm 2 mps 732 mmHg 87%
    07:00 +19°C° 0 mm 2 mps 732 mmHg 82%
    08:00 +21°C° 0.1 mm 3 mps 732 mmHg 76%
    09:00 +22°C° 0.1 mm 4 mps 732 mmHg 71%
    10:00 +23°C° 0.1 mm 4 mps 732 mmHg 65%
    11:00 +23°C° 0.7 mm 4 mps 732 mmHg 67%
    12:00 +23°C° 0.7 mm 4 mps 732 mmHg 68%
    13:00 +24°C° 0.7 mm 3 mps 731 mmHg 70%
    14:00 +22°C° 0.9 mm 3 mps 731 mmHg 72%
    15:00 +23°C° 0.9 mm 2 mps 731 mmHg 75%
    16:00 +22°C° 0.9 mm 1 mps 731 mmHg 77%
    17:00 +21°C° 1.7 mm 1 mps 731 mmHg 80%
    18:00 +20°C° 1.7 mm 1 mps 731 mmHg 83%
    19:00 +17°C° 1.7 mm 0 mps 731 mmHg 86%
    20:00 +18°C° 0.2 mm 1 mps 732 mmHg 88%
    21:00 +18°C° 0.2 mm 1 mps 732 mmHg 89%
    22:00 +16°C° 0.2 mm 2 mps 732 mmHg 91%
    23:00 +14°C° 0.1 mm 3 mps 733 mmHg 92%

    Day after tomorrow, 29 May, Wednesday

    Time Temperature Precipitation Wind Pressure Humidity
    00:00 +14°C° 0.1 mm 3 mps 733 mmHg 94%
    01:00 +13°C° 0.1 mm 4 mps 734 mmHg 96%
    02:00 +13°C° 0.2 mm 4 mps 734 mmHg 95%
    03:00 +12°C° 0.2 mm 5 mps 735 mmHg 95%
    04:00 +10°C° 0.2 mm 5 mps 735 mmHg 95%
    05:00 +10°C° 0.2 mm 5 mps 736 mmHg 94%
    06:00 +9°C° 0.2 mm 5 mps 737 mmHg 93%
    07:00 +8°C° 0.2 mm 5 mps 737 mmHg 92%
    08:00 +9°C° 0.1 mm 5 mps 738 mmHg 90%
    09:00 +10°C° 0.1 mm 5 mps 739 mmHg 87%
    10:00 +12°C° 0.1 mm 5 mps 739 mmHg 84%
    11:00 +13°C° 0 mm 4 mps 740 mmHg 77%
    12:00 +15°C° 0 mm 4 mps 740 mmHg 69%
    13:00 +18°C° 0 mm 4 mps 740 mmHg 61%
    14:00 +18°C° 0 mm 4 mps 741 mmHg 61%
    15:00 +18°C° 0 mm 4 mps 741 mmHg 61%
    16:00 +18°C° 0 mm 4 mps 741 mmHg 61%
    17:00 +17°C° 0 mm 4 mps 741 mmHg 66%
    18:00 +16°C° 0 mm 3 mps 741 mmHg 71%
    19:00 +14°C° 0 mm 3 mps 741 mmHg 76%
    20:00 +13°C° 0 mm 3 mps 741 mmHg 79%
    21:00 +12°C° 0 mm 3 mps 742 mmHg 82%
    22:00 +11°C° 0 mm 3 mps 742 mmHg 85%
    23:00 +10°C° 0 mm 3 mps 742 mmHg 86%

    30 May, Thursday

    Time Temperature Precipitation Wind Pressure Humidity
    00:00 +10°C° 0 mm 3 mps 742 mmHg 86%
    01:00 +9°C° 0 mm 3 mps 742 mmHg 86%
    02:00 +9°C° 0 mm 3 mps 742 mmHg 85%
    03:00 +9°C° 0 mm 3 mps 743 mmHg 84%
    04:00 +9°C° 0 mm 2 mps 743 mmHg 82%
    05:00 +9°C° 0.1 mm 2 mps 743 mmHg 81%
    06:00 +10°C° 0.1 mm 2 mps 743 mmHg 80%
    07:00 +10°C° 0.1 mm 2 mps 743 mmHg 78%
    08:00 +10°C° 0.1 mm 2 mps 743 mmHg 77%
    09:00 +10°C° 0.1 mm 2 mps 743 mmHg 76%
    10:00 +12°C° 0.1 mm 2 mps 743 mmHg 74%
    11:00 +13°C° 0 mm 2 mps 743 mmHg 65%
    12:00 +15°C° 0 mm 2 mps 743 mmHg 55%
    13:00 +16°C° 0 mm 2 mps 743 mmHg 46%
    14:00 +17°C° 0 mm 2 mps 743 mmHg 45%
    15:00 +18°C° 0 mm 1 mps 743 mmHg 44%
    16:00 +19°C° 0 mm 1 mps 743 mmHg 43%
    17:00 +18°C° 0 mm 1 mps 743 mmHg 49%
    18:00 +15°C° 0 mm 1 mps 743 mmHg 55%
    19:00 +14°C° 0 mm 1 mps 743 mmHg 61%
    20:00 +13°C° 0 mm 1 mps 743 mmHg 60%
    21:00 +11°C° 0 mm 0 mps 743 mmHg 60%
    22:00 +10°C° 0 mm 0 mps 743 mmHg 60%
    23:00 +10°C° 0 mm 0 mps 743 mmHg 60%

    31 May, Friday

    Time Temperature Precipitation Wind Pressure Humidity
    00:00 +10°C° 0 mm 0 mps 743 mmHg 61%
    01:00 +10°C° 0 mm 0 mps 743 mmHg 61%
    02:00 +9°C° 0 mm 0 mps 743 mmHg 63%
    03:00 +9°C° 0 mm 0 mps 743 mmHg 64%
    04:00 +9°C° 0 mm 0 mps 742 mmHg 66%
    05:00 +11°C° 0 mm 0 mps 742 mmHg 63%
    06:00 +13°C° 0 mm 0 mps 742 mmHg 60%
    07:00 +15°C° 0 mm 0 mps 742 mmHg 57%
    08:00 +16°C° 0 mm 0 mps 742 mmHg 54%
    09:00 +18°C° 0 mm 0 mps 742 mmHg 51%
    10:00 +20°C° 0 mm 0 mps 742 mmHg 47%
    11:00 +21°C° 0 mm 0 mps 741 mmHg 46%
    12:00 +21°C° 0 mm 0 mps 741 mmHg 45%
    13:00 +22°C° 0 mm 0 mps 741 mmHg 44%
    14:00 +22°C° 0 mm 0 mps 740 mmHg 45%
    15:00 +21°C° 0 mm 0 mps 740 mmHg 46%
    16:00 +21°C° 0 mm 0 mps 740 mmHg 47%
    17:00 +22°C° 0 mm 1 mps 740 mmHg 55%
    18:00 +20°C° 0 mm 1 mps 740 mmHg 63%
    19:00 +19°C° 0 mm 1 mps 740 mmHg 71%
    20:00 +18°C° 0 mm 1 mps 740 mmHg 75%
    21:00 +17°C° 0 mm 2 mps 740 mmHg 80%
    22:00 +16°C° 0 mm 2 mps 740 mmHg 84%
    23:00 +16°C° 0.1 mm 3 mps 740 mmHg 87%

    1 June, Saturday

    Time Temperature Precipitation Wind Pressure Humidity
    00:00 +16°C° 0.1 mm 3 mps 740 mmHg 91%
    01:00 +14°C° 0.1 mm 4 mps 740 mmHg 94%
    02:00 +14°C° 0.3 mm 5 mps 741 mmHg 94%
    03:00 +14°C° 0.3 mm 6 mps 741 mmHg 93%
    04:00 +13°C° 0.3 mm 6 mps 741 mmHg 93%
    05:00 +13°C° 0.3 mm 6 mps 741 mmHg 93%
    06:00 +11°C° 0.3 mm 7 mps 742 mmHg 94%
    07:00 +11°C° 0.3 mm 7 mps 742 mmHg 94%
    08:00 +11°C° 0.1 mm 7 mps 743 mmHg 92%
    09:00 +11°C° 0.1 mm 7 mps 743 mmHg 90%
    10:00 +11°C° 0.1 mm 7 mps 744 mmHg 89%
    11:00 +11°C° 0.1 mm 7 mps 744 mmHg 88%
    12:00 +11°C° 0.1 mm 6 mps 744 mmHg 88%
    13:00 +11°C° 0.1 mm 6 mps 744 mmHg 88%
    14:00 +11°C° 0.2 mm 6 mps 744 mmHg 86%
    15:00 +13°C° 0.2 mm 6 mps 744 mmHg 84%
    16:00 +13°C° 0.2 mm 5 mps 744 mmHg 83%
    17:00 +13°C° 0.4 mm 5 mps 744 mmHg 83%
    18:00 +13°C° 0.4 mm 5 mps 745 mmHg 84%
    19:00 +12°C° 0.4 mm 5 mps 745 mmHg 84%
    20:00 +12°C° 0.2 mm 5 mps 745 mmHg 84%
    21:00 +10°C° 0.2 mm 5 mps 745 mmHg 83%
    22:00 +9°C° 0.2 mm 5 mps 745 mmHg 82%
    23:00 +9°C° 0 mm 5 mps 745 mmHg 82%
    Show more